sat.trackr.live / text

‹ back to catalog

STARLINK-36630

NORAD 67703 · 2026-025L

PAYLOAD ACTIVE UNKNOWN

§ Identity

Operator
Country
US
Launch date
2026-02-07
Launch site
AFWTR
Launch vehicle
Mass (kg)
RCS (m²)

Purposes: comms

External: N2YO · Heavens-Above · Gunter

§ Orbital elements

Epoch: 2026-09-19T07:16:17.514336Z

Period
93.91 min
Inclination
97.2852°
Eccentricity
0.0001106
Mean motion
15.33451108 rev/d
Perigee alt
464.8 km
Apogee alt
466.3 km
Semi-major
6,843.7 km
B*
5.1159e-4
RAAN
12.2402°
Arg perigee
256.5479°
Mean anomaly
103.5641°
Rev number
3,568

§ Raw data

STARLINK-366301 67703U 26025L   26262.30298049  .00016480  00000+0  51159-3 0  99932 67703  97.2852  12.2402 0001106 256.5479 103.5641 15.33451108 35688

JSON: /api/v1/satellites/67703 · /tle

For live sub-satellite position, see the globe view (requires WebGL).

§ Visibility from observer

Set your observer location to see the next 7 days of passes ≥ 10°. The values pass through the URL so the page stays shareable.

No JS? Fill the form by hand. The geolocation button needs JavaScript.